Mount Carmel, IL

4:38 AM CDT on June 27, 2017 (GMT -0500)
Mount Carmel Municipal

Weather History for KAJG - January, 2014

Change the Weather History Date:

Monday, January 6, 2014

  Actual Average (KLWV) Record (KLWV)
Temperature  
Mean Temperature 0 °F -  
Max Temperature 5 °F 37 °F 64 °F (2008)
Min Temperature -5 °F 22 °F -8 °F (2014)
Degree Days  
Heating Degree Days 65    
Moisture  
Dew Point -12 °F    
Average Humidity 66    
Maximum Humidity 78    
Minimum Humidity 60    
Precipitation  
Precipitation 0.14 in - - ()
Sea Level Pressure  
Sea Level Pressure 30.41 in    
Wind  
Wind Speed 18 mph (WNW)    
Max Wind Speed 25 mph    
Max Gust Speed 33 mph    
Visibility 10 miles    
Events      
Averages and records for this station are not official NWS values.
T = Trace of Precipitation, MM = Missing Value Source: NWS Daily Summary

Daily Weather History Graph

Daily Weather History Graph

Search for Another Location

Airport or City:

Trip Planner

Search our weather history database for the weather conditions in past years. The results will help you decide how hot, cold, wet, or windy it might be!

Date:

Astronomy

Jan. 06, 2014 Rise Set
Actual Time 7:09 AM CST 4:44 PM CST
Civil Twilight 6:39 AM CST 5:14 PM CST
Nautical Twilight 6:06 AM CST 5:47 PM CST
Astronomical Twilight 5:34 AM CST 6:19 PM CST
Moon 10:28 AM CST (1/6) 11:13 PM CST (1/6)
Length of Visible Light 10h 34m
Length of Day
9h 35m
Waxing Crescent, 35% of the Moon is Illuminated
Jan 6
Waxing Crescent
Jan 7
First Quarter
Jan 15
Full
Jan 23
Last Quarter
Jan 30
New

Hourly Weather History & Observations

Time (CST) Temp. Windchill Dew Point Humidity Pressure Visibility Wind Dir Wind Speed Gust Speed Precip Events Conditions
12:15 AM 5.0 °F -15.7 °F -2.2 °F 72% 30.18 in 10.0 mi NW 20.7 mph 27.6 mph N/A   Mostly Cloudy
12:35 AM 3.2 °F -19.9 °F -4.0 °F 72% 30.19 in 7.0 mi NW 25.3 mph 32.2 mph N/A   Scattered Clouds
12:55 AM 3.2 °F -18.1 °F -4.0 °F 72% 30.21 in 10.0 mi NW 20.7 mph 27.6 mph N/A   Clear
1:15 AM 3.2 °F -19.0 °F -2.2 °F 78% 30.22 in 10.0 mi NW 23.0 mph 31.1 mph N/A   Mostly Cloudy
1:35 AM 1.4 °F -21.0 °F -5.8 °F 72% 30.25 in 10.0 mi NW 21.9 mph 32.2 mph N/A   Scattered Clouds
1:55 AM 1.4 °F -20.5 °F -5.8 °F 72% 30.27 in 10.0 mi NW 20.7 mph 31.1 mph N/A   Scattered Clouds
2:15 AM 1.4 °F -21.0 °F -7.6 °F 66% 30.29 in 10.0 mi NW 21.9 mph 33.4 mph N/A   Scattered Clouds
2:35 AM 1.4 °F -19.4 °F -7.6 °F 66% 30.29 in 10.0 mi NW 18.4 mph 25.3 mph N/A   Scattered Clouds
2:55 AM 1.4 °F -18.8 °F -7.6 °F 66% 30.30 in 10.0 mi NW 17.3 mph 27.6 mph N/A   Scattered Clouds
3:15 AM -0.4 °F -20.5 °F -7.6 °F 72% 30.30 in 10.0 mi NW 16.1 mph 24.2 mph N/A   Mostly Cloudy
3:35 AM -0.4 °F -21.7 °F -7.6 °F 72% 30.32 in 10.0 mi NW 18.4 mph - N/A   Mostly Cloudy
3:55 AM -0.4 °F -19.2 °F -5.8 °F 78% 30.32 in 2.0 mi NW 13.8 mph 21.9 mph N/A   Haze
4:15 AM -0.4 °F -16.7 °F -5.8 °F 78% 30.32 in 1.8 mi WNW 10.4 mph 16.1 mph N/A   Haze
4:35 AM -0.4 °F -20.5 °F -9.4 °F 66% 30.33 in 10.0 mi WNW 16.1 mph - 0.01 in   Scattered Clouds
4:55 AM -2.2 °F -24.7 °F -9.4 °F 71% 30.34 in 10.0 mi WNW 19.6 mph - 0.01 in   Clear
5:15 AM -2.2 °F -22.2 °F -9.4 °F 71% 30.35 in 10.0 mi WNW 15.0 mph - N/A   Clear
5:35 AM -4.0 °F -25.8 °F -11.2 °F 71% 30.36 in 10.0 mi WNW 17.3 mph - N/A   Mostly Cloudy
5:55 AM -4.0 °F -26.4 °F -11.2 °F 71% 30.37 in 10.0 mi WNW 18.4 mph 24.2 mph N/A   Mostly Cloudy
6:15 AM -4.0 °F -25.8 °F -13.0 °F 65% 30.38 in 10.0 mi WNW 17.3 mph 24.2 mph N/A   Scattered Clouds
6:35 AM -4.0 °F -26.4 °F -13.0 °F 65% 30.39 in 10.0 mi WNW 18.4 mph 23.0 mph N/A   Scattered Clouds
6:55 AM -5.8 °F -26.0 °F -13.0 °F 71% 30.39 in 7.0 mi NW 13.8 mph 24.2 mph N/A   Mostly Cloudy
7:15 AM -5.8 °F -27.5 °F -16.6 °F 60% 30.40 in 10.0 mi NW 16.1 mph 24.2 mph N/A   Scattered Clouds
7:35 AM -5.8 °F -26.0 °F -16.6 °F 60% 30.42 in 10.0 mi WNW 13.8 mph 20.7 mph N/A   Clear
7:55 AM -5.8 °F -27.5 °F -14.8 °F 65% 30.42 in 10.0 mi WNW 16.1 mph 20.7 mph N/A   Clear
8:15 AM -5.8 °F -28.2 °F -14.8 °F 65% 30.43 in 10.0 mi WNW 17.3 mph - N/A   Clear
8:35 AM -5.8 °F -27.5 °F -14.8 °F 65% 30.43 in 10.0 mi West 16.1 mph 20.7 mph N/A   Clear
8:55 AM -4.0 °F -25.8 °F -14.8 °F 60% 30.44 in 10.0 mi WNW 17.3 mph 23.0 mph N/A   Clear
9:15 AM -4.0 °F -24.5 °F -13.0 °F 65% 30.45 in 10.0 mi WNW 15.0 mph 23.0 mph N/A   Clear
9:35 AM -4.0 °F -25.8 °F -13.0 °F 65% 30.45 in 10.0 mi West 17.3 mph - N/A   Scattered Clouds
9:55 AM -4.0 °F -27.0 °F -13.0 °F 65% 30.45 in 10.0 mi West 19.6 mph 27.6 mph N/A   Mostly Cloudy
10:20 AM -4.0 °F -28.1 °F -14.8 °F 60% 30.45 in 10.0 mi West 21.9 mph - N/A   Overcast
10:35 AM -4.0 °F -27.0 °F -14.8 °F 60% 30.45 in 10.0 mi WNW 19.6 mph 26.5 mph N/A   Overcast
10:55 AM -4.0 °F -27.6 °F -14.8 °F 60% 30.44 in 10.0 mi West 20.7 mph 24.2 mph N/A   Mostly Cloudy
11:15 AM -4.0 °F -27.0 °F -13.0 °F 65% 30.43 in 10.0 mi West 19.6 mph 24.2 mph N/A   Mostly Cloudy
11:35 AM -4.0 °F -27.0 °F -14.8 °F 60% 30.42 in 10.0 mi WNW 19.6 mph - N/A   Mostly Cloudy
11:55 AM -4.0 °F -27.6 °F -13.0 °F 65% 30.42 in 10.0 mi West 20.7 mph 25.3 mph N/A   Mostly Cloudy
12:15 PM -4.0 °F -27.0 °F -14.8 °F 60% 30.41 in 10.0 mi West 19.6 mph - N/A   Mostly Cloudy
12:35 PM -4.0 °F -26.4 °F -13.0 °F 65% 30.41 in 10.0 mi West 18.4 mph 25.3 mph N/A   Overcast
12:55 PM -4.0 °F -25.8 °F -9.4 °F 78% 30.41 in 3.0 mi West 17.3 mph 21.9 mph N/A   Haze
1:15 PM -2.2 °F -23.5 °F -13.0 °F 60% 30.42 in 10.0 mi West 17.3 mph 25.3 mph N/A   Overcast
1:35 PM -4.0 °F -25.8 °F -11.2 °F 71% 30.42 in 4.0 mi WNW 17.3 mph 21.9 mph N/A   Haze
1:55 PM -4.0 °F -26.4 °F -13.0 °F 65% 30.42 in 7.0 mi West 18.4 mph - N/A   Overcast
2:15 PM -4.0 °F -25.8 °F -13.0 °F 65% 30.43 in 10.0 mi WNW 17.3 mph - N/A   Overcast
2:35 PM -2.2 °F -22.9 °F -11.2 °F 66% 30.44 in 10.0 mi WNW 16.1 mph 23.0 mph N/A   Overcast
2:55 PM -4.0 °F -27.0 °F -14.8 °F 60% 30.45 in 10.0 mi West 19.6 mph 24.2 mph N/A   Mostly Cloudy
3:15 PM -4.0 °F -25.2 °F -13.0 °F 65% 30.46 in 10.0 mi West 16.1 mph - N/A   Mostly Cloudy
3:35 PM -4.0 °F -26.4 °F -13.0 °F 65% 30.46 in 10.0 mi West 18.4 mph 24.2 mph N/A   Mostly Cloudy
3:55 PM -4.0 °F -26.4 °F -13.0 °F 65% 30.46 in 10.0 mi West 18.4 mph - N/A   Mostly Cloudy
4:15 PM -4.0 °F -25.2 °F -13.0 °F 65% 30.47 in 10.0 mi West 16.1 mph - N/A   Mostly Cloudy
4:35 PM -4.0 °F -24.5 °F -13.0 °F 65% 30.47 in 10.0 mi West 15.0 mph - N/A   Mostly Cloudy
4:55 PM -4.0 °F -25.2 °F -13.0 °F 65% 30.47 in 10.0 mi West 16.1 mph 20.7 mph N/A   Clear
5:15 PM -4.0 °F -23.7 °F -13.0 °F 65% 30.47 in 10.0 mi West 13.8 mph - N/A   Clear
5:35 PM -4.0 °F -22.1 °F -13.0 °F 65% 30.48 in 10.0 mi West 11.5 mph - N/A   Clear
5:55 PM -4.0 °F -21.2 °F -13.0 °F 65% 30.48 in 10.0 mi West 10.4 mph - N/A   Scattered Clouds
6:15 PM -4.0 °F -20.2 °F -13.0 °F 65% 30.48 in 10.0 mi West 9.2 mph - N/A   Scattered Clouds
6:35 PM -4.0 °F -20.2 °F -13.0 °F 65% 30.48 in 10.0 mi West 9.2 mph - 0.02 in   Scattered Clouds
6:55 PM -4.0 °F -17.8 °F -13.0 °F 65% 30.48 in 10.0 mi West 6.9 mph - 0.04 in   Clear
7:15 PM -4.0 °F -20.2 °F -13.0 °F 65% 30.49 in 10.0 mi WSW 9.2 mph - 0.02 in   Clear
7:35 PM -4.0 °F -20.2 °F -13.0 °F 65% 30.48 in 10.0 mi West 9.2 mph - 0.04 in   Scattered Clouds
7:55 PM -4.0 °F -22.1 °F -13.0 °F 65% 30.49 in 10.0 mi West 11.5 mph - 0.06 in   Clear
8:15 PM -4.0 °F -23.0 °F -13.0 °F 65% 30.50 in 10.0 mi West 12.7 mph - 0.01 in   Scattered Clouds
8:35 PM -4.0 °F -21.2 °F -13.0 °F 65% 30.50 in 10.0 mi West 10.4 mph - 0.01 in   Clear
8:55 PM -4.0 °F -21.2 °F -13.0 °F 65% 30.50 in 10.0 mi West 10.4 mph - 0.01 in   Clear
9:15 PM -4.0 °F -22.1 °F -13.0 °F 65% 30.50 in 10.0 mi West 11.5 mph - N/A   Clear
9:35 PM -4.0 °F -22.1 °F -13.0 °F 65% 30.50 in 10.0 mi West 11.5 mph - N/A   Scattered Clouds
9:55 PM -4.0 °F -23.7 °F -13.0 °F 65% 30.50 in 10.0 mi West 13.8 mph - N/A   Scattered Clouds
10:15 PM -4.0 °F -22.1 °F -13.0 °F 65% 30.50 in 10.0 mi West 11.5 mph - N/A   Clear
10:35 PM -4.0 °F -22.1 °F -13.0 °F 65% 30.50 in 10.0 mi West 11.5 mph - N/A   Clear
10:55 PM -4.0 °F -20.2 °F -13.0 °F 65% 30.50 in 10.0 mi WSW 9.2 mph - N/A   Clear
11:15 PM -4.0 °F -20.2 °F -13.0 °F 65% 30.50 in 10.0 mi WSW 9.2 mph - 0.01 in   Clear
11:35 PM -4.0 °F -22.1 °F -13.0 °F 65% 30.50 in 10.0 mi West 11.5 mph - 0.02 in   Clear
11:55 PM -2.2 °F -18.9 °F -11.2 °F 66% 30.49 in 10.0 mi West 10.4 mph - 0.02 in   Scattered Clouds